Regional Weather Roundup
Issued by NWS

Home | Current Version | Previous Version | Graphics & Text | Print | Product List | Glossary On
Versions: 1 2 3 4 5 6 7 8 9 10 11 12 13 14 15 16 17 18 19 20 21 22 23 24 25 26 27 28 29 30 31 32 33 34 35 36 37 38 39 40 41 42 43 44 45 46 47 48 49 50
000
ASUS43 KOAX 281602
RWRNE

WEATHER ROUNDUP FOR NEBRASKA
NATIONAL WEATHER SERVICE OMAHA NE
1000 AM CST TUE FEB 28 2017

NOTES: SATELLITE DATA IS BEING USED TO AUGMENT CLOUD COVER ABOVE
       12000 FEET.
       "FAIR" INDICATES FEW OR NO CLOUDS BELOW 12,000 FEET WITH NO
       SIGNIFICANT WEATHER AND/OR OBSTRUCTIONS TO VISIBILITY.

  * THESE STATIONS DO NOT REPORT WEATHER SUCH AS RAIN...SNOW OR FOG.

NEZ001>004-019>022-054>056-281700-
NEBRASKA PANHANDLE

CITY           SKY/WX    TMP DP  RH WIND       PRES   REMARKS
SCOTTSBLUFF    CLOUDY    28  12  51 W13       29.73S WCI  17
ALLIANCE       CLOUDY    24  13  62 W15       29.70F WCI  11
CHADRON        CLOUDY    23  10  57 SW14      29.72S WCI  11
KIMBALL        CLOUDY    30  13  49 NW6       29.72S WCI  24
SIDNEY         MOSUNNY   32  11  41 NW15      29.71F WCI  22
$$

NEZ057>060-069>072-079>082-281700-
SOUTHWEST NEBRASKA

CITY           SKY/WX    TMP DP  RH WIND       PRES   REMARKS
NORTH PLATTE   MOSUNNY   35  24  64 NW12      29.73S WCI  27
IMPERIAL       CLOUDY    35  16  45 N24G30    29.72F WCI  23
LEXINGTON      CLOUDY    36  30  78 NW10      29.73R WCI  29
MCCOOK         CLOUDY    40  24  53 N13       29.70F WCI  32
OGALLALA       CLOUDY    38  15  39 NW14      29.73F WCI  29
$$

NEZ005>010-023>029-035>040-094-281700-
NORTH CENTRAL NEBRASKA

CITY           SKY/WX    TMP DP  RH WIND       PRES   REMARKS
VALENTINE      FOG       28  26  92 CALM      29.73S VSB 1/2
AINSWORTH      FOG       31  31 100 NW7       29.72S VSB 1/4 WCI  24
BROKEN BOW     CLOUDY    34  28  79 N9        29.70S WCI  27
O`NEILL        CLOUDY    32  31  95 N13       29.71S WCI  22
ORD            CLOUDY    34  28  79 NW16      29.69R WCI  24
THEDFORD       SUNNY     33  27  79 NW8       29.73R WCI  26
$$

NEZ041-046>049-061>064-073>077-083>087-281700-
SOUTH CENTRAL NEBRASKA

CITY           SKY/WX    TMP DP  RH WIND       PRES   REMARKS
GRAND ISLAND   CLOUDY    36  33  89 NW12      29.71R WCI  28
AURORA         MOSUNNY   36  33  90 N12       29.70R WCI  28
HASTINGS       CLOUDY    37  31  78 N15       29.71R WCI  28
HEBRON         PTSUNNY   41  35  80 NW9       29.68F
HOLDREGE       CLOUDY    39  31  73 N9        29.72R WCI  33
KEARNEY *      CLOUDY    37  28  70 N12       29.71R WCI  30
YORK           CLOUDY    37  36  93 N8        29.68R WCI  31
$$

NEZ011>018-030>034-042>045-281700-
NORTHEAST NEBRASKA

CITY           SKY/WX    TMP DP  RH WIND       PRES   REMARKS
NORFOLK        CLOUDY    34  28  79 N13       29.65S WCI  25
ALBION         CLOUDY    36  30  79 N15       29.66R WCI  26
BLAIR          CLOUDY    41  38  90 N10       29.62S FOG
FREMONT        CLOUDY    40  35  82 NW5       29.65R
TEKAMAH        CLOUDY    38  33  82 N13       29.64R WCI  30
WAYNE          MOSUNNY   36  32  85 N14       29.65S WCI  27
$$

NEZ050>053-065>068-078-088>093-281700-
SOUTHEAST NEBRASKA

CITY           SKY/WX    TMP DP  RH WIND       PRES   REMARKS
LINCOLN        CLOUDY    44  39  82 W5        29.68R
OMAHA EPPLEY   CLOUDY    43  38  82 N7        29.64R
BEATRICE       PTSUNNY   47  39  74 NW12      29.65S
FALLS CITY     MOSUNNY   60  50  69 SW13      29.62F
NEBRASKA CITY  MOSUNNY   51  33  51 W10       29.63F
PLATTSMOUTH    MOSUNNY   48  38  67 W10       29.63R
$$

NEZ044-045-051>053-067-281700-
OMAHA AREA

CITY           SKY/WX    TMP DP  RH WIND       PRES   REMARKS
OMAHA EPPLEY   CLOUDY    43  38  82 N7        29.64R
BLAIR          CLOUDY    41  38  90 N10       29.62S FOG
FREMONT        CLOUDY    40  35  82 NW5       29.65R
MILLARD        CLOUDY    45  42  88 SW6       29.65R
PLATTSMOUTH    MOSUNNY   48  38  67 W10       29.63R
WAHOO          CLOUDY    39  36  87 NW7       29.65R WCI  34
$$



USA.gov is the U.S. government's official web portal to all federal, state and local government web resources and services.